TimeEDT,TemperatureF,Dew PointF,Humidity,Sea Level PressureIn,VisibilityMPH,Wind Direction,Wind SpeedMPH,Gust SpeedMPH,PrecipitationIn,Events,Conditions,WindDirDegrees,DateUTC
12:15 AM,63.5,63.5,100,30.14,7.0,Calm,Calm,-,N/A,,Clear,0,2012-10-05 04:15:00
12:35 AM,62.8,62.8,100,30.14,5.0,Calm,Calm,-,N/A,,Scattered Clouds,0,2012-10-05 04:35:00
12:55 AM,63.7,63.7,100,30.14,7.0,Calm,Calm,-,N/A,,Overcast,0,2012-10-05 04:55:00
1:15 AM,64.4,64.4,100,30.14,7.0,Calm,Calm,-,N/A,,Overcast,0,2012-10-05 05:15:00
1:35 AM,64.4,64.4,100,30.14,7.0,Calm,Calm,-,N/A,,Overcast,0,2012-10-05 05:35:00
2:15 AM,63.1,63.1,100,30.14,3.0,Calm,Calm,-,N/A,,Scattered Clouds,0,2012-10-05 06:15:00
2:35 AM,60.8,60.8,100,30.14,2.5,Calm,Calm,-,N/A,,Scattered Clouds,0,2012-10-05 06:35:00
2:55 AM,61.9,61.9,100,30.13,7.0,Calm,Calm,-,N/A,,Scattered Clouds,0,2012-10-05 06:55:00
3:35 AM,59.9,59.9,100,30.13,1.2,Calm,Calm,-,N/A,,Mist,0,2012-10-05 07:35:00
3:55 AM,59.2,59.2,100,30.13,2.5,Calm,Calm,-,N/A,,Clear,0,2012-10-05 07:55:00
4:15 AM,58.3,58.3,100,30.13,3.0,Calm,Calm,-,N/A,,Clear,0,2012-10-05 08:15:00
4:35 AM,58.8,58.8,100,30.14,4.0,Calm,Calm,-,N/A,,Clear,0,2012-10-05 08:35:00
4:55 AM,58.1,58.1,100,30.14,5.0,Calm,Calm,-,N/A,,Clear,0,2012-10-05 08:55:00
5:15 AM,57.0,57.0,100,30.14,2.0,Calm,Calm,-,N/A,,Clear,0,2012-10-05 09:15:00
5:35 AM,57.4,57.4,100,30.15,0.8,Calm,Calm,-,N/A,,Mist,0,2012-10-05 09:35:00
5:55 AM,57.2,57.2,100,30.15,7.0,Calm,Calm,-,N/A,,Clear,0,2012-10-05 09:55:00
6:15 AM,56.5,56.5,100,30.15,0.8,Calm,Calm,-,N/A,,Mist,0,2012-10-05 10:15:00
7:15 AM,55.4,55.4,100,30.14,2.5,Calm,Calm,-,N/A,,Clear,0,2012-10-05 11:15:00
7:35 AM,55.4,55.4,100,30.14,1.5,Calm,Calm,-,N/A,,Mist,0,2012-10-05 11:35:00
7:55 AM,56.8,56.8,100,30.14,4.0,Calm,Calm,-,N/A,,Clear,0,2012-10-05 11:55:00
8:35 AM,61.5,61.5,100,30.14,10.0,Calm,Calm,-,N/A,,Clear,0,2012-10-05 12:35:00
9:15 AM,67.3,62.2,84,30.15,10.0,Calm,Calm,-,N/A,,Clear,0,2012-10-05 13:15:00
9:35 AM,68.9,62.1,79,30.15,10.0,Calm,Calm,-,N/A,,Clear,0,2012-10-05 13:35:00
9:55 AM,71.1,62.4,74,30.15,10.0,Calm,Calm,-,N/A,,Clear,0,2012-10-05 13:55:00
10:15 AM,72.9,62.4,70,30.16,10.0,Calm,Calm,-,N/A,,Clear,0,2012-10-05 14:15:00
10:35 AM,74.1,62.2,66,30.16,10.0,Calm,Calm,-,N/A,,Clear,0,2012-10-05 14:35:00
10:55 AM,76.1,59.5,56,30.15,10.0,NW,4.6,-,N/A,,Clear,320,2012-10-05 14:55:00
11:15 AM,77.4,59.7,54,30.15,10.0,West,4.6,-,N/A,,Clear,280,2012-10-05 15:15:00
11:35 AM,78.4,59.5,52,30.14,10.0,NNW,3.5,-,N/A,,Clear,330,2012-10-05 15:35:00
11:55 AM,78.4,59.5,52,30.13,10.0,NW,4.6,-,N/A,,Clear,310,2012-10-05 15:55:00
12:35 PM,80.1,59.4,49,30.11,10.0,North,3.5,-,N/A,,Scattered Clouds,360,2012-10-05 16:35:00
12:55 PM,79.7,57.6,47,30.11,10.0,Calm,Calm,-,N/A,,Clear,0,2012-10-05 16:55:00
1:15 PM,80.2,58.1,47,30.10,10.0,NE,3.5,-,N/A,,Scattered Clouds,50,2012-10-05 17:15:00
1:35 PM,79.3,57.7,47,30.08,10.0,Calm,Calm,-,N/A,,Scattered Clouds,0,2012-10-05 17:35:00
1:55 PM,80.8,59.0,47,30.07,10.0,Calm,Calm,-,N/A,,Scattered Clouds,0,2012-10-05 17:55:00
2:35 PM,81.7,57.9,44,30.05,10.0,Calm,Calm,-,N/A,,Clear,0,2012-10-05 18:35:00
2:55 PM,79.7,58.5,48,30.05,10.0,Calm,Calm,-,N/A,,Clear,0,2012-10-05 18:55:00
3:15 PM,80.6,57.0,44,30.04,10.0,Calm,Calm,-,N/A,,Clear,0,2012-10-05 19:15:00
3:35 PM,81.1,57.4,44,30.03,10.0,Calm,Calm,-,N/A,,Scattered Clouds,0,2012-10-05 19:35:00
3:55 PM,81.1,58.3,46,30.03,10.0,SSW,3.5,-,N/A,,Scattered Clouds,200,2012-10-05 19:55:00
4:15 PM,79.9,58.1,47,30.03,10.0,Calm,Calm,-,N/A,,Scattered Clouds,0,2012-10-05 20:15:00
4:35 PM,80.6,58.6,47,30.03,10.0,SSW,4.6,-,N/A,,Scattered Clouds,200,2012-10-05 20:35:00
4:55 PM,80.1,59.5,49,30.03,10.0,South,3.5,-,N/A,,Scattered Clouds,190,2012-10-05 20:55:00
5:15 PM,78.3,60.8,55,30.03,10.0,South,4.6,-,N/A,,Clear,190,2012-10-05 21:15:00
5:35 PM,77.4,61.2,57,30.02,10.0,South,3.5,-,N/A,,Clear,190,2012-10-05 21:35:00
5:55 PM,76.1,62.4,62,30.02,10.0,Calm,Calm,-,N/A,,Clear,0,2012-10-05 21:55:00
6:15 PM,73.6,63.1,70,30.02,10.0,South,3.5,-,N/A,,Clear,180,2012-10-05 22:15:00
6:35 PM,71.6,62.8,74,30.02,10.0,South,3.5,-,N/A,,Clear,180,2012-10-05 22:35:00
7:15 PM,65.5,63.7,94,30.02,10.0,Calm,Calm,-,N/A,,Clear,0,2012-10-05 23:15:00
7:35 PM,64.4,64.4,100,30.02,10.0,Calm,Calm,-,N/A,,Clear,0,2012-10-05 23:35:00
7:55 PM,64.0,64.0,100,30.02,10.0,Calm,Calm,-,N/A,,Clear,0,2012-10-05 23:55:00
8:15 PM,64.0,63.5,98,30.02,10.0,Calm,Calm,-,N/A,,Clear,0,2012-10-06 00:15:00
8:35 PM,66.0,62.4,88,30.02,10.0,SSE,3.5,-,N/A,,Clear,160,2012-10-06 00:35:00
8:55 PM,65.8,62.1,88,30.02,10.0,Calm,Calm,-,N/A,,Clear,0,2012-10-06 00:55:00
9:15 PM,64.4,62.1,92,30.02,10.0,Calm,Calm,-,N/A,,Clear,0,2012-10-06 01:15:00
9:35 PM,63.9,62.6,96,30.02,10.0,Calm,Calm,-,N/A,,Clear,0,2012-10-06 01:35:00
9:55 PM,63.5,62.6,97,30.02,10.0,Calm,Calm,-,N/A,,Clear,0,2012-10-06 01:55:00
10:15 PM,63.1,63.0,99,30.01,10.0,SSE,3.5,-,N/A,,Clear,160,2012-10-06 02:15:00
10:35 PM,63.9,62.8,96,30.01,10.0,South,4.6,-,N/A,,Clear,170,2012-10-06 02:35:00
10:55 PM,64.0,62.6,95,30.00,10.0,SSE,3.5,-,N/A,,Clear,160,2012-10-06 02:55:00
11:35 PM,63.3,62.6,97,30.00,10.0,SSE,4.6,-,N/A,,Clear,160,2012-10-06 03:35:00
11:55 PM,63.1,62.6,98,29.99,10.0,South,3.5,-,N/A,,Clear,170,2012-10-06 03:55:00